CZ-6A DEB, 60849

Orbit data source: Space-Track

CZ-6A DEB, 60849 is space debris in LEO originally from a launch on Tue, 06 Aug 2024 UTC launched from the Taiyaun Space Center, China (TSC). Debris objects in space refer to the collection of defunct objects orbiting the Earth. Examples of debris include non-operational satellites, rocket bodies, and fragments generated from explosions, collisions, or faulty payload assembly.

Loading next visibility...
Identifier
60849, 2024-140JC
Orbit
LEO
Country
Flag of CNCN / PRC
Related business
Manufacturer
SAST
Mission
Spacecraft
Bus & Motor
Unknown
Mass
Unknown
Launch date (UTC)
2024-08-06 (2 years ago)
Launch vehicle
Unknown
Launch site
Taiyaun Space Center, China (TSC)
Object type
Payload
Rocket body
Debris
Shape & HBR
Unknown shape, 0.2 m
Radar Cross Section
Medium (>0.1 m² and <1 m²)

Expand to show TLE details & history
Last TLE update: 13 hours ago

TLE from 13 hours ago
0 CZ-6A DEB
1 60849U 24140JC  26171.31903816  .00001992  00000-0  31320-3 0  9999
2 60849  89.1314 279.8584 0146944 218.7292 140.3318 14.65122586 98802
Epoch: 2026-06-20T07:39Z
TLE epoch observation values (Epoch: 2026-06-20T07:39:24.897Z)
Latitude
-0.00005°
Longitude
-103.53071°
Altitude
760.225 km
Speed
7.431 km/s
True Right ascension
18h 39m 26s
True Declination
0° 00' 00"
Sunlit
Object was in full shadow at epoch
Visualization orbit readout
Latitude
Unknown
Longitude
Unknown
Altitude
Unknown
Speed
Unknown
Apparent Right ascension
Unknown
Apparent Declination
Unknown
Sunlit
N/A
Visualization observer readout
Local Sidereal Time
07:14:10
Azimuth
Unknown
Elevation
Unknown
Doppler factor
Unknown
Orbital elements
Apogee altitude
777.188 km
Perigee altitude
569.946 km
Semi-major axis
7,051.704 km
Eccentricity
0.01469
Inclination
89.1314°
RAAN
279.8584°
Arg. of periapsis
218.7292°
True anomaly
141.39162°
Mean anomaly
140.3318°
Eccentric anomaly
140.8632°
Mean motion
3.66524 °/min
Orbital period
98.22 mins
BSTAR
0.0003132
Loading maneuver chart data...
Computing Atmospheric mass density...
Loading historical data...
Loading historical data...
Loading historical data...
Loading historical data...
Loading historical data...
Loading historical data...
Loading historical data...

Documentation

Showing up to 5 results
|